Flag for U.S.A. Weather past 2 weeks in Breckenridge, Colorado, U.S.A.

Now
54 °F

Thundershowers. Broken clouds.


Feels Like: 52 °F
Forecast: 50 / 65 °F
Wind: 7 mph from South

Location: Copper Mountain - Red Cliff Pass

Current Time: Aug 1, 2014 at 5:02:23 PM

Latest Report: Aug 1, 2014 at 4:36 PM


Visibility: 10 mi

Pressure: 30.66 "Hg

Humidity: 63%

Dew point: 41 °F

Location of BreckenridgeLocation

Historic Weather in Breckenridge — Graph

°F

Breckenridge temperature yesterday

Maximum temperature yesterday: 55 °F (at 3:16 PM)
Minimum temperature yesterday: 45 °F (at 12:16 AM)
Average temperature yesterday: 49 °F

Past Weeks' High & Low Weather Summary

 TemperatureHumidityPressure
High72 °F (Jul 25, 3:56 PM)87% (Jul 26, 5:56 PM)30.90 "Hg (Jul 26, 5:56 PM)
Low43 °F (Aug 1, 11:36 AM)12% (Jul 22, 5:56 PM)30.51 "Hg (Jul 17, 3:16 PM)
Average55 °F53%30.70 "Hg
* Reported Jul 17 3:16 PM — Aug 1 3:50 PM, Breckenridge, Weather by CustomWeather, © 2014

Note: Actual official high and low records may vary slightly from our data, if they occured in-between our weather recording intervals... More about our weather records

Advertising

Breckenridge weather history for previous 24 hours

 ConditionsComfort  
Time TempWeatherWind HumidityBarometerVisibility
3:50 PM
Aug 1
54 °FThunderstorms. Scattered clouds.5 mph63%30.66 "Hg10 mi
3:33 PM54 °FCloudy.7 mph63%30.66 "Hg10 mi
2:56 PM48 °FCloudy.3 mph76%30.66 "Hg10 mi
2:36 PM48 °FThundershowers. More clouds than sun.10 mph76%30.67 "Hg10 mi
2:16 PM50 °FBroken clouds.3 mph67%30.67 "Hg10 mi
1:56 PM50 °FThundershowers. Partly sunny.No wind71%30.67 "Hg10 mi
1:36 PM46 °FThundershowers. Overcast.5 mph76%30.67 "Hg10 mi
1:16 PM46 °FMore clouds than sun.3 mph76%30.67 "Hg10 mi
12:56 PM45 °FThundershowers. Cloudy.5 mph81%30.68 "Hg10 mi
12:36 PM45 °FDrizzle. More clouds than sun.7 mph81%30.69 "Hg1 mi
12:16 PM45 °FThundershowers. Cloudy.7 mph81%30.69 "Hg5 mi
11:56 AM45 °FThunderstorms. Low clouds.9 mph81%30.69 "Hg0 mi
11:36 AM43 °FLight rain. Cloudy.15 mph81%30.68 "Hg7 mi
11:16 AM45 °FRain. Low clouds.18 mph81%30.68 "Hg0 mi
10:56 AM45 °FThundershowers. Low clouds.13 mph76%30.67 "Hg1 mi
10:36 AM48 °FThunderstorms. Cloudy.14 mph71%30.67 "Hg10 mi
10:16 AM46 °FThundershowers. More clouds than sun.13 mph76%30.66 "Hg10 mi
9:56 AM46 °FMostly cloudy.16 mph76%30.66 "Hg10 mi
9:36 AM46 °FMostly cloudy.13 mph82%30.66 "Hg10 mi
9:16 AM50 °FMore clouds than sun.15 mph71%30.66 "Hg10 mi
8:56 AM46 °FMore clouds than sun.15 mph82%30.64 "Hg10 mi
8:36 AM45 °FCloudy.16 mph87%30.64 "Hg10 mi
8:16 AM45 °FCloudy.18 mph87%30.64 "Hg3 mi
7:56 AM45 °FCloudy.17 mph81%30.64 "Hg7 mi
7:36 AM46 °FPartly sunny.7 mph76%30.64 "Hg10 mi
7:16 AM45 °FThundershowers. Scattered clouds.9 mph76%30.63 "Hg10 mi
6:56 AM46 °FThundershowers. Partly cloudy.12 mph71%30.63 "Hg10 mi
6:36 AM46 °FPassing clouds.8 mph71%30.63 "Hg10 mi
6:16 AM45 °FClear.7 mph76%30.63 "Hg10 mi
5:56 AM45 °FClear.5 mph76%30.62 "Hg10 mi
5:36 AM46 °FClear.13 mph66%30.62 "Hg10 mi
5:16 AM46 °FClear.13 mph71%30.61 "Hg10 mi
4:56 AM46 °FClear.15 mph71%30.62 "Hg10 mi
4:36 AM46 °FClear.13 mph71%30.62 "Hg10 mi
4:16 AM46 °FClear.16 mph71%30.62 "Hg10 mi
3:56 AM45 °FPassing clouds.20 mph76%30.62 "Hg10 mi
3:36 AM45 °FPassing clouds.18 mph76%30.63 "Hg10 mi
2:56 AM46 °FPassing clouds.21 mph71%30.63 "Hg10 mi
2:36 AM46 °FPassing clouds.20 mph71%30.63 "Hg10 mi
2:16 AM45 °FPassing clouds.20 mph76%30.64 "Hg10 mi
1:56 AM46 °FPassing clouds.21 mph71%30.64 "Hg10 mi
1:36 AM46 °FPassing clouds.17 mph71%30.64 "Hg10 mi
1:16 AM46 °FPassing clouds.16 mph71%30.65 "Hg10 mi
12:56 AM46 °FPassing clouds.16 mph71%30.66 "Hg10 mi
12:36 AM46 °FPassing clouds.17 mph71%30.66 "Hg10 mi
12:16 AM46 °FOvercast.20 mph71%30.66 "Hg10 mi
11:56 PM
Jul 31
46 °FOvercast.17 mph71%30.66 "Hg10 mi
11:36 PM46 °FOvercast.13 mph76%30.66 "Hg10 mi
11:16 PM46 °FMostly cloudy.9 mph76%30.66 "Hg10 mi
10:56 PM46 °FMostly cloudy.12 mph76%30.66 "Hg10 mi
10:16 PM46 °FPassing clouds.6 mph76%30.66 "Hg10 mi
9:56 PM48 °FClear.8 mph66%30.66 "Hg10 mi
9:36 PM48 °FClear.5 mph71%30.65 "Hg10 mi
9:16 PM50 °FScattered clouds.9 mph67%30.64 "Hg10 mi
8:56 PM50 °FScattered clouds.6 mph71%30.64 "Hg10 mi
8:36 PM50 °FScattered clouds.7 mph71%30.62 "Hg10 mi
8:16 PM52 °FPartly sunny.7 mph67%30.63 "Hg10 mi
7:56 PM52 °FScattered clouds.6 mph67%30.64 "Hg10 mi
7:36 PM54 °FSunny.6 mph67%30.64 "Hg10 mi
7:16 PM54 °FScattered clouds.5 mph63%30.64 "Hg10 mi
6:56 PM54 °FBroken clouds.6 mph63%30.63 "Hg10 mi
6:36 PM54 °FBroken clouds.6 mph67%30.63 "Hg10 mi
6:16 PM54 °FBroken clouds.3 mph67%30.63 "Hg10 mi
5:56 PM54 °FScattered clouds.5 mph72%30.64 "Hg10 mi
5:36 PM52 °FBroken clouds.9 mph72%30.64 "Hg10 mi
5:16 PM48 °FLight rain. Cloudy.9 mph82%30.64 "Hg10 mi
Weather by CustomWeather, © 2014

See weather overviewHow to use our weather pages